Radiation Dose at Monitoring Post of Fukushima Daini Nuclear Power Station
Date,Time,MP-1(microSv/h),MP-2(microSv/h),MP-3(microSv/h),MP-4(microSv/h),MP-5(microSv/h),MP-6(microSv/h),MP-7(microSv/h),Wind Direction,Wind Velocity(m/s),Rain
2021/04/30,00:00,0.160,0.148,0.232,0.221,0.227,0.125,0.081,south,7.4,Yes
2021/04/30,00:10,0.160,0.149,0.230,0.221,0.226,0.126,0.080,south,6.1,Yes
2021/04/30,00:20,0.159,0.148,0.231,0.221,0.227,0.126,0.082,south-southwest,5.8,Yes
2021/04/30,00:30,0.160,0.149,0.228,0.220,0.228,0.126,0.081,south,5.0,Yes
2021/04/30,00:40,0.157,0.149,0.227,0.218,0.226,0.125,0.081,south-southwest,3.4,Yes
2021/04/30,00:50,0.155,0.148,0.227,0.217,0.225,0.125,0.080,south-southeast,1.5,Yes
2021/04/30,01:00,0.153,0.147,0.223,0.215,0.223,0.123,0.081,-,CALM,Yes
2021/04/30,01:10,0.152,0.147,0.224,0.216,0.224,0.124,0.081,southwest,1.7,Yes
2021/04/30,01:20,0.152,0.147,0.222,0.215,0.223,0.123,0.080,north-northeast,2.0,Yes
2021/04/30,01:30,0.152,0.146,0.221,0.214,0.224,0.123,0.081,west-northwest,5.7,Yes
2021/04/30,01:40,0.149,0.145,0.218,0.212,0.219,0.123,0.079,north,7.1,Yes
2021/04/30,01:50,0.149,0.146,0.218,0.213,0.223,0.122,0.081,northwest,8.1,Yes
2021/04/30,02:00,0.151,0.148,0.223,0.218,0.224,0.123,0.082,west-northwest,8.2,Yes
2021/04/30,02:10,0.154,0.148,0.227,0.220,0.228,0.123,0.081,west-northwest,10.7,Yes
2021/04/30,02:20,0.157,0.149,0.230,0.222,0.226,0.123,0.081,west-northwest,10.6,No
2021/04/30,02:30,0.158,0.148,0.230,0.222,0.227,0.123,0.081,northwest,9.2,No
2021/04/30,02:40,0.159,0.149,0.230,0.224,0.228,0.124,0.081,northwest,8.5,No
2021/04/30,02:50,0.160,0.148,0.231,0.225,0.227,0.123,0.080,northwest,6.8,No
2021/04/30,03:00,0.159,0.148,0.232,0.224,0.229,0.123,0.081,north-northwest,7.8,No
2021/04/30,03:10,0.160,0.148,0.232,0.225,0.228,0.122,0.080,northwest,5.8,No
2021/04/30,03:20,0.160,0.148,0.232,0.224,0.228,0.123,0.080,north-northwest,5.3,No
2021/04/30,03:30,0.160,0.147,0.232,0.224,0.228,0.123,0.080,north,5.3,No
2021/04/30,03:40,0.160,0.148,0.233,0.225,0.229,0.124,0.079,north,5.6,No
2021/04/30,03:50,0.160,0.148,0.233,0.225,0.228,0.124,0.079,north,4.6,No
2021/04/30,04:00,0.162,0.148,0.231,0.225,0.227,0.124,0.079,north,4.7,No
2021/04/30,04:10,0.161,0.147,0.232,0.226,0.229,0.123,0.079,northwest,4.8,No
2021/04/30,04:20,0.161,0.147,0.235,0.224,0.228,0.123,0.079,north-northwest,2.8,No
2021/04/30,04:30,0.160,0.148,0.231,0.225,0.230,0.124,0.079,northwest,6.6,No
2021/04/30,04:40,0.162,0.147,0.235,0.225,0.228,0.124,0.079,west-northwest,6.3,No
2021/04/30,04:50,0.161,0.148,0.234,0.226,0.228,0.125,0.080,west-northwest,7.8,No
2021/04/30,05:00,0.162,0.149,0.233,0.225,0.230,0.125,0.079,west-northwest,6.9,No
2021/04/30,05:10,0.162,0.148,0.235,0.224,0.227,0.125,0.079,west-northwest,9.5,No
2021/04/30,05:20,0.161,0.148,0.233,0.224,0.230,0.125,0.079,west-northwest,8.8,No
2021/04/30,05:30,0.162,0.148,0.234,0.226,0.229,0.125,0.079,west-northwest,7.2,No
2021/04/30,05:40,0.161,0.148,0.236,0.225,0.229,0.125,0.079,west-northwest,7.5,No
2021/04/30,05:50,0.161,0.148,0.234,0.226,0.229,0.125,0.079,northwest,6.3,No
2021/04/30,06:00,0.162,0.148,0.233,0.225,0.227,0.124,0.078,northwest,7.7,No
2021/04/30,06:10,0.162,0.148,0.236,0.225,0.229,0.125,0.078,west-northwest,6.2,No
2021/04/30,06:20,0.163,0.148,0.233,0.227,0.228,0.125,0.079,northwest,5.7,No
2021/04/30,06:30,0.162,0.148,0.234,0.225,0.230,0.125,0.078,north,3.2,No
2021/04/30,06:40,0.163,0.148,0.235,0.226,0.229,0.126,0.079,northwest,2.7,No
2021/04/30,06:50,0.162,0.147,0.235,0.224,0.229,0.125,0.079,west-northwest,3.4,No
2021/04/30,07:00,0.161,0.147,0.237,0.226,0.229,0.125,0.078,west,2.6,No
2021/04/30,07:10,0.163,0.147,0.234,0.225,0.229,0.124,0.079,northwest,5.0,No
2021/04/30,07:20,0.161,0.148,0.235,0.226,0.230,0.125,0.079,northwest,7.7,No
2021/04/30,07:30,0.162,0.148,0.235,0.224,0.228,0.126,0.079,west-northwest,6.8,No
2021/04/30,07:40,0.162,0.148,0.233,0.225,0.229,0.125,0.079,west,4.0,No
2021/04/30,07:50,0.163,0.146,0.236,0.226,0.228,0.126,0.079,west-southwest,5.6,No
2021/04/30,08:00,0.163,0.148,0.236,0.224,0.228,0.126,0.079,west,6.3,No
2021/04/30,08:10,0.162,0.147,0.233,0.224,0.228,0.126,0.079,west-northwest,9.0,No
2021/04/30,08:20,0.162,0.147,0.236,0.227,0.228,0.127,0.079,west-northwest,6.7,No
2021/04/30,08:30,0.162,0.148,0.235,0.225,0.230,0.126,0.079,west-northwest,6.6,No
2021/04/30,08:40,0.163,0.149,0.238,0.227,0.228,0.127,0.080,northwest,9.2,No
2021/04/30,08:50,0.161,0.148,0.237,0.225,0.230,0.126,0.080,west,2.1,No
2021/04/30,09:00,0.164,0.147,0.238,0.228,0.229,0.126,0.080,west-southwest,1.8,No
2021/04/30,09:10,0.163,0.149,0.237,0.226,0.231,0.126,0.080,north-northwest,2.2,No
2021/04/30,09:20,0.164,0.149,0.238,0.227,0.230,0.127,0.079,west,3.1,No
2021/04/30,09:30,0.163,0.148,0.237,0.226,0.229,0.127,0.079,west-northwest,2.2,No
2021/04/30,09:40,0.162,0.149,0.235,0.226,0.229,0.127,0.080,west-northwest,2.5,No
2021/04/30,09:50,0.164,0.148,0.238,0.227,0.228,0.128,0.079,west,2.8,No
2021/04/30,10:00,0.162,0.149,0.238,0.226,0.228,0.126,0.079,north,1.1,No
2021/04/30,10:10,0.163,0.149,0.237,0.226,0.230,0.127,0.079,northwest,1.7,No
2021/04/30,10:20,0.163,0.149,0.238,0.229,0.228,0.127,0.080,west-northwest,8.5,No
2021/04/30,10:30,0.163,0.150,0.235,0.225,0.230,0.126,0.079,west-northwest,4.0,No
2021/04/30,10:40,0.163,0.148,0.238,0.228,0.230,0.127,0.080,west-northwest,6.1,No
2021/04/30,10:50,0.164,0.149,0.238,0.227,0.227,0.127,0.079,west,9.6,No
2021/04/30,11:00,0.163,0.148,0.237,0.224,0.230,0.127,0.079,west-northwest,6.9,No
2021/04/30,11:10,0.166,0.148,0.240,0.228,0.230,0.128,0.080,west-southwest,8.2,No
2021/04/30,11:20,0.163,0.148,0.238,0.227,0.228,0.128,0.079,west-northwest,5.7,No
2021/04/30,11:30,0.164,0.149,0.235,0.226,0.228,0.126,0.078,west-northwest,7.0,No
2021/04/30,11:40,0.164,0.149,0.240,0.226,0.231,0.127,0.080,west,9.2,No
2021/04/30,11:50,0.163,0.149,0.240,0.229,0.230,0.127,0.080,west-northwest,10.7,No
2021/04/30,12:00,0.164,0.149,0.238,0.228,0.227,0.128,0.079,west-northwest,8.8,No
2021/04/30,12:10,0.164,0.149,0.238,0.226,0.230,0.128,0.080,west,8.5,No
2021/04/30,12:20,0.163,0.149,0.241,0.227,0.231,0.127,0.080,west,8.1,No
2021/04/30,12:30,0.164,0.150,0.239,0.229,0.230,0.128,0.080,west,6.3,No
2021/04/30,12:40,0.164,0.148,0.237,0.227,0.228,0.129,0.079,west,8.7,No
2021/04/30,12:50,0.164,0.148,0.238,0.227,0.227,0.128,0.079,west,7.8,No
2021/04/30,13:00,0.165,0.151,0.241,0.226,0.230,0.128,0.079,west,6.9,No
2021/04/30,13:10,0.166,0.150,0.240,0.229,0.233,0.129,0.079,west,5.9,No
2021/04/30,13:20,0.164,0.150,0.237,0.229,0.231,0.129,0.080,west,5.4,No
2021/04/30,13:30,0.162,0.148,0.238,0.229,0.229,0.129,0.081,west,3.1,No
2021/04/30,13:40,0.163,0.150,0.243,0.227,0.229,0.129,0.080,west-southwest,2.5,No
2021/04/30,13:50,0.165,0.150,0.241,0.227,0.228,0.129,0.080,south,4.8,No
2021/04/30,14:00,0.165,0.149,0.239,0.227,0.228,0.128,0.079,south-southeast,7.3,No
2021/04/30,14:10,0.165,0.149,0.237,0.229,0.229,0.128,0.080,southeast,7.2,No
2021/04/30,14:20,0.163,0.150,0.238,0.231,0.230,0.128,0.081,south-southeast,7.4,No
2021/04/30,14:30,0.162,0.150,0.243,0.229,0.233,0.129,0.079,south-southeast,6.4,No
2021/04/30,14:40,0.163,0.149,0.241,0.228,0.231,0.129,0.080,southeast,6.6,No
2021/04/30,14:50,0.164,0.149,0.239,0.231,0.230,0.129,0.080,southeast,6.1,No
2021/04/30,15:00,0.165,0.151,0.239,0.230,0.230,0.129,0.080,south-southeast,5.1,No
2021/04/30,15:10,0.163,0.150,0.242,0.229,0.229,0.129,0.080,south-southeast,6.0,No
2021/04/30,15:20,0.164,0.149,0.241,0.229,0.232,0.130,0.081,south-southeast,6.5,No
2021/04/30,15:30,0.163,0.151,0.240,0.231,0.233,0.128,0.080,south-southeast,5.4,No
2021/04/30,15:40,0.166,0.150,0.242,0.229,0.230,0.129,0.080,south-southeast,5.5,No
2021/04/30,15:50,0.165,0.149,0.240,0.232,0.228,0.129,0.080,south-southeast,6.5,No
2021/04/30,16:00,0.163,0.151,0.242,0.230,0.230,0.129,0.080,south-southeast,5.6,No
2021/04/30,16:10,0.165,0.150,0.241,0.232,0.234,0.130,0.081,south,6.0,No
2021/04/30,16:20,0.165,0.151,0.242,0.231,0.230,0.129,0.080,south-southeast,4.9,No
2021/04/30,16:30,0.164,0.150,0.242,0.230,0.231,0.128,0.080,south-southeast,5.0,No
2021/04/30,16:40,0.166,0.151,0.242,0.230,0.233,0.129,0.080,south,5.9,No
2021/04/30,16:50,0.165,0.150,0.241,0.231,0.230,0.128,0.081,south-southeast,5.8,No
2021/04/30,17:00,0.165,0.151,0.241,0.231,0.230,0.129,0.080,south-southeast,5.7,No
2021/04/30,17:10,0.165,0.150,0.243,0.230,0.233,0.129,0.081,south,7.6,No
2021/04/30,17:20,0.165,0.151,0.240,0.230,0.230,0.129,0.080,south,7.5,No
2021/04/30,17:30,0.166,0.149,0.241,0.229,0.232,0.130,0.080,south,6.4,No
2021/04/30,17:40,0.165,0.151,0.241,0.230,0.232,0.128,0.080,south-southwest,5.7,No
2021/04/30,17:50,0.165,0.150,0.242,0.230,0.231,0.131,0.082,south-southwest,6.0,Yes
2021/04/30,18:00,0.167,0.153,0.243,0.232,0.234,0.133,0.083,south-southwest,7.8,Yes
2021/04/30,18:10,0.170,0.154,0.246,0.235,0.236,0.137,0.087,west-southwest,1.9,Yes
2021/04/30,18:20,0.172,0.157,0.247,0.237,0.238,0.138,0.089,south-southwest,6.6,Yes
2021/04/30,18:30,0.174,0.159,0.249,0.240,0.243,0.143,0.091,west-southwest,3.3,Yes
2021/04/30,18:40,0.176,0.163,0.251,0.241,0.242,0.143,0.094,west-northwest,5.3,Yes
2021/04/30,18:50,0.179,0.164,0.250,0.240,0.244,0.145,0.094,west-northwest,9.8,Yes
2021/04/30,19:00,0.179,0.164,0.251,0.240,0.243,0.144,0.095,west-northwest,7.3,Yes
2021/04/30,19:10,0.178,0.165,0.253,0.241,0.245,0.143,0.095,west,7.5,Yes
2021/04/30,19:20,0.179,0.164,0.250,0.241,0.243,0.143,0.095,west,10.6,Yes
2021/04/30,19:30,0.177,0.164,0.249,0.240,0.241,0.143,0.093,west-northwest,12.0,Yes
2021/04/30,19:40,0.177,0.163,0.250,0.239,0.244,0.142,0.094,west-northwest,10.1,Yes
2021/04/30,19:50,0.177,0.163,0.250,0.239,0.242,0.142,0.095,west-northwest,8.3,Yes
2021/04/30,20:00,0.176,0.161,0.247,0.236,0.242,0.141,0.092,northwest,7.3,No
2021/04/30,20:10,0.175,0.160,0.247,0.236,0.240,0.138,0.091,west-northwest,7.2,No
2021/04/30,20:20,0.172,0.157,0.245,0.234,0.237,0.136,0.089,northwest,6.4,No
2021/04/30,20:30,0.171,0.156,0.243,0.231,0.237,0.134,0.086,northwest,5.3,No
2021/04/30,20:40,0.170,0.156,0.242,0.230,0.234,0.133,0.086,north-northwest,4.5,No
2021/04/30,20:50,0.167,0.154,0.241,0.230,0.234,0.132,0.085,north-northeast,1.9,No
2021/04/30,21:00,0.168,0.152,0.240,0.229,0.232,0.132,0.084,north-northeast,2.2,No
2021/04/30,21:10,0.165,0.152,0.240,0.228,0.231,0.131,0.083,north,2.3,No
2021/04/30,21:20,0.166,0.151,0.239,0.227,0.231,0.130,0.082,north-northeast,2.1,No
2021/04/30,21:30,0.165,0.152,0.237,0.226,0.230,0.128,0.081,-,CALM,No
2021/04/30,21:40,0.165,0.150,0.239,0.227,0.232,0.129,0.081,west-northwest,3.5,Yes
2021/04/30,21:50,0.166,0.150,0.238,0.227,0.230,0.129,0.081,west-northwest,6.2,No
2021/04/30,22:00,0.164,0.151,0.237,0.227,0.232,0.129,0.081,west,7.6,No
2021/04/30,22:10,0.165,0.151,0.239,0.228,0.231,0.128,0.081,west-northwest,6.4,No
2021/04/30,22:20,0.164,0.150,0.238,0.227,0.230,0.128,0.081,west,8.9,Yes
2021/04/30,22:30,0.164,0.150,0.238,0.227,0.232,0.128,0.081,west,11.5,Yes
2021/04/30,22:40,0.164,0.150,0.238,0.228,0.230,0.129,0.081,west,10.1,No
2021/04/30,22:50,0.164,0.150,0.238,0.227,0.232,0.129,0.081,west-northwest,7.9,No
2021/04/30,23:00,0.164,0.149,0.238,0.227,0.231,0.129,0.081,west-northwest,5.5,No
2021/04/30,23:10,0.164,0.150,0.238,0.227,0.230,0.129,0.081,west-northwest,3.5,No
2021/04/30,23:20,0.164,0.150,0.237,0.226,0.230,0.129,0.080,west-northwest,2.6,No
2021/04/30,23:30,0.164,0.150,0.239,0.226,0.231,0.129,0.080,northwest,4.7,No
2021/04/30,23:40,0.163,0.151,0.239,0.225,0.230,0.129,0.080,north-northwest,2.8,No
2021/04/30,23:50,0.166,0.149,0.238,0.227,0.230,0.129,0.080,north-northeast,2.7,No
